Year,Month,Day,Hour,Minute,Value (Times are PST for temperature in C)
2011,12,09,00,00,0.20
2011,12,09,00,01,0.20
2011,12,09,00,02,0.20
2011,12,09,00,03,0.20
2011,12,09,00,04,0.20
2011,12,09,00,05,0.20
2011,12,09,00,06,0.20
2011,12,09,00,07,0.20
2011,12,09,00,08,0.20
2011,12,09,00,09,0.20
2011,12,09,00,10,0.20
2011,12,09,00,11,0.20
2011,12,09,00,12,0.20
2011,12,09,00,13,0.30
2011,12,09,00,14,0.30
2011,12,09,00,15,0.30
2011,12,09,00,16,0.30
2011,12,09,00,17,0.30
2011,12,09,00,18,0.30
2011,12,09,00,19,0.30
2011,12,09,00,20,0.30
2011,12,09,00,21,0.30
2011,12,09,00,22,0.40
2011,12,09,00,23,0.40
2011,12,09,00,24,0.40
2011,12,09,00,25,0.40
2011,12,09,00,26,0.50
2011,12,09,00,27,0.50
2011,12,09,00,28,0.50
2011,12,09,00,29,0.60
2011,12,09,00,30,0.60
2011,12,09,00,31,0.60
2011,12,09,00,32,0.60
2011,12,09,00,33,0.60
2011,12,09,00,34,0.60
2011,12,09,00,35,0.60
2011,12,09,00,36,0.60
2011,12,09,00,37,0.60
2011,12,09,00,38,0.60
2011,12,09,00,39,0.60
2011,12,09,00,40,0.60
2011,12,09,00,41,0.50
2011,12,09,00,42,0.50
2011,12,09,00,43,0.50
2011,12,09,00,44,0.50
2011,12,09,00,45,0.50
2011,12,09,00,46,0.40
2011,12,09,00,47,0.40
2011,12,09,00,48,0.40
2011,12,09,00,49,0.40
2011,12,09,00,50,0.40
2011,12,09,00,51,0.40
2011,12,09,00,52,0.40
2011,12,09,00,53,0.40
2011,12,09,00,54,0.50
2011,12,09,00,55,0.40
2011,12,09,00,56,0.50
2011,12,09,00,57,0.40
2011,12,09,00,58,0.40
2011,12,09,00,59,0.40
2011,12,09,01,00,0.40
2011,12,09,01,01,0.40
2011,12,09,01,02,0.40
2011,12,09,01,03,0.40
2011,12,09,01,04,0.30
2011,12,09,01,05,0.30
2011,12,09,01,06,0.30
2011,12,09,01,07,0.30
2011,12,09,01,08,0.30
2011,12,09,01,09,0.30
2011,12,09,01,10,0.30
2011,12,09,01,11,0.40
2011,12,09,01,12,0.40
2011,12,09,01,13,0.40
2011,12,09,01,14,0.40
2011,12,09,01,15,0.40
2011,12,09,01,16,0.40
2011,12,09,01,17,0.40
2011,12,09,01,18,0.40
2011,12,09,01,19,0.40
2011,12,09,01,20,0.40
2011,12,09,01,21,0.40
2011,12,09,01,22,0.30
2011,12,09,01,23,0.30
2011,12,09,01,24,0.30
2011,12,09,01,25,0.30
2011,12,09,01,26,0.30
2011,12,09,01,27,0.30
2011,12,09,01,28,0.30
2011,12,09,01,29,0.30
2011,12,09,01,30,0.30
2011,12,09,01,31,0.30
2011,12,09,01,32,0.30
2011,12,09,01,33,0.30
2011,12,09,01,34,0.40
2011,12,09,01,35,0.40
2011,12,09,01,36,0.40
2011,12,09,01,37,0.40
2011,12,09,01,38,0.40
2011,12,09,01,39,0.50
2011,12,09,01,40,0.60
2011,12,09,01,41,0.70
2011,12,09,01,42,0.80
2011,12,09,01,43,0.90
2011,12,09,01,44,0.90
2011,12,09,01,45,1.00
2011,12,09,01,46,1.00
2011,12,09,01,47,1.10
2011,12,09,01,48,1.10
2011,12,09,01,49,1.20
2011,12,09,01,50,1.30
2011,12,09,01,51,1.30
2011,12,09,01,52,1.40
2011,12,09,01,53,1.40
2011,12,09,01,54,1.40
2011,12,09,01,55,1.40
2011,12,09,01,56,1.40
2011,12,09,01,57,1.50
2011,12,09,01,58,1.50
2011,12,09,01,59,1.60
2011,12,09,02,00,1.60
2011,12,09,02,01,1.60
2011,12,09,02,02,1.60
2011,12,09,02,03,1.60
2011,12,09,02,04,1.60
2011,12,09,02,05,1.60
2011,12,09,02,06,1.60
2011,12,09,02,07,1.60
2011,12,09,02,08,1.60
2011,12,09,02,09,1.70
2011,12,09,02,10,1.70
2011,12,09,02,11,1.70
2011,12,09,02,12,1.70
2011,12,09,02,13,1.80
2011,12,09,02,14,1.80
2011,12,09,02,15,1.80
2011,12,09,02,16,1.80
2011,12,09,02,17,1.90
2011,12,09,02,18,1.90
2011,12,09,02,19,1.90
2011,12,09,02,20,1.90
2011,12,09,02,21,1.90
2011,12,09,02,22,1.90
2011,12,09,02,23,1.90
2011,12,09,02,24,1.90
2011,12,09,02,25,1.90
2011,12,09,02,26,2.00
2011,12,09,02,27,2.00
2011,12,09,02,28,2.00
2011,12,09,02,29,2.10
2011,12,09,02,30,2.10
2011,12,09,02,31,2.10
2011,12,09,02,32,2.10
2011,12,09,02,33,2.10
2011,12,09,02,34,2.20
2011,12,09,02,35,2.20
2011,12,09,02,36,2.20
2011,12,09,02,37,2.20
2011,12,09,02,38,2.20
2011,12,09,02,39,2.20
2011,12,09,02,40,2.20
2011,12,09,02,41,2.20
2011,12,09,02,42,2.20
2011,12,09,02,43,2.20
2011,12,09,02,44,2.20
2011,12,09,02,45,2.30
2011,12,09,02,46,2.30
2011,12,09,02,47,2.30
2011,12,09,02,48,2.30
2011,12,09,02,49,2.30
2011,12,09,02,50,2.30
2011,12,09,02,51,2.30
2011,12,09,02,52,2.30
2011,12,09,02,53,2.30
2011,12,09,02,54,2.30
2011,12,09,02,55,2.30
2011,12,09,02,56,2.30
2011,12,09,02,57,2.30
2011,12,09,02,58,2.30
2011,12,09,02,59,2.30
2011,12,09,03,00,2.30
2011,12,09,03,01,2.30
2011,12,09,03,02,2.40
2011,12,09,03,03,2.40
2011,12,09,03,04,2.40
2011,12,09,03,05,2.40
2011,12,09,03,06,2.40
2011,12,09,03,07,2.40
2011,12,09,03,08,2.40
2011,12,09,03,09,2.40
2011,12,09,03,10,2.40
2011,12,09,03,11,2.40
2011,12,09,03,12,2.40
2011,12,09,03,13,2.40
2011,12,09,03,14,2.40
2011,12,09,03,15,2.40
2011,12,09,03,16,2.40
2011,12,09,03,17,2.40
2011,12,09,03,18,2.40
2011,12,09,03,19,2.40
2011,12,09,03,20,2.40
2011,12,09,03,21,2.40
2011,12,09,03,22,2.40
2011,12,09,03,23,2.40
2011,12,09,03,24,2.40
2011,12,09,03,25,2.40
2011,12,09,03,26,2.40
2011,12,09,03,27,2.40
2011,12,09,03,28,2.40
2011,12,09,03,29,2.40
2011,12,09,03,30,2.40
2011,12,09,03,31,2.40
2011,12,09,03,32,2.40
2011,12,09,03,33,2.40
2011,12,09,03,34,2.30
2011,12,09,03,35,2.30
2011,12,09,03,36,2.30
2011,12,09,03,37,2.30
2011,12,09,03,38,2.30
2011,12,09,03,39,2.30
2011,12,09,03,40,2.30
2011,12,09,03,41,2.40
2011,12,09,03,42,2.30
2011,12,09,03,43,2.40
2011,12,09,03,44,2.40
2011,12,09,03,45,2.40
2011,12,09,03,46,2.40
2011,12,09,03,47,2.40
2011,12,09,03,48,2.40
2011,12,09,03,49,2.40
2011,12,09,03,50,2.40
2011,12,09,03,51,2.40
2011,12,09,03,52,2.40
2011,12,09,03,53,2.40
2011,12,09,03,54,2.40
2011,12,09,03,55,2.40
2011,12,09,03,56,2.40
2011,12,09,03,57,2.40
2011,12,09,03,58,2.40
2011,12,09,03,59,2.40
2011,12,09,04,00,2.40
2011,12,09,04,01,2.40
2011,12,09,04,02,2.40
2011,12,09,04,03,2.40
2011,12,09,04,04,2.40
2011,12,09,04,05,2.40
2011,12,09,04,06,2.40
2011,12,09,04,07,2.40
2011,12,09,04,08,2.40
2011,12,09,04,09,2.40
2011,12,09,04,10,2.40
2011,12,09,04,11,2.40
2011,12,09,04,12,2.40
2011,12,09,04,13,2.40
2011,12,09,04,14,2.40
2011,12,09,04,15,2.40
2011,12,09,04,16,2.40
2011,12,09,04,17,2.40
2011,12,09,04,18,2.40
2011,12,09,04,19,2.40
2011,12,09,04,20,2.40
2011,12,09,04,21,2.40
2011,12,09,04,22,2.40
2011,12,09,04,23,2.40
2011,12,09,04,24,2.50
2011,12,09,04,25,2.50
2011,12,09,04,26,2.50
2011,12,09,04,27,2.50
2011,12,09,04,28,2.40
2011,12,09,04,29,2.40
2011,12,09,04,30,2.50
2011,12,09,04,31,2.50
2011,12,09,04,32,2.50
2011,12,09,04,33,2.50
2011,12,09,04,34,2.50
2011,12,09,04,35,2.50
2011,12,09,04,36,2.50
2011,12,09,04,37,2.50
2011,12,09,04,38,2.50
2011,12,09,04,39,2.50
2011,12,09,04,40,2.50
2011,12,09,04,41,2.50
2011,12,09,04,42,2.50
2011,12,09,04,43,2.50
2011,12,09,04,44,2.50
2011,12,09,04,45,2.50
2011,12,09,04,46,2.50
2011,12,09,04,47,2.60
2011,12,09,04,48,2.60
2011,12,09,04,49,2.60
2011,12,09,04,50,2.60
2011,12,09,04,51,2.60
2011,12,09,04,52,2.60
2011,12,09,04,53,2.60
2011,12,09,04,54,2.60
2011,12,09,04,55,2.60
2011,12,09,04,56,2.60
2011,12,09,04,57,2.60
2011,12,09,04,58,2.60
2011,12,09,04,59,2.60
2011,12,09,05,00,2.60
2011,12,09,05,01,2.60
2011,12,09,05,02,2.60
2011,12,09,05,03,2.50
2011,12,09,05,04,2.50
2011,12,09,05,05,2.50
2011,12,09,05,06,2.50
2011,12,09,05,07,2.50
2011,12,09,05,08,2.50
2011,12,09,05,09,2.50
2011,12,09,05,10,2.50
2011,12,09,05,11,2.50
2011,12,09,05,12,2.50
2011,12,09,05,13,2.50
2011,12,09,05,14,2.50
2011,12,09,05,15,2.60
2011,12,09,05,16,2.60
2011,12,09,05,17,2.60
2011,12,09,05,18,2.60
2011,12,09,05,19,2.60
2011,12,09,05,20,2.60
2011,12,09,05,21,2.60
2011,12,09,05,22,2.60
2011,12,09,05,23,2.60
2011,12,09,05,24,2.60
2011,12,09,05,25,2.60
2011,12,09,05,26,2.60
2011,12,09,05,27,2.60
2011,12,09,05,28,2.60
2011,12,09,05,29,2.60
2011,12,09,05,30,2.60
2011,12,09,05,31,2.60
2011,12,09,05,32,2.60
2011,12,09,05,33,2.60
2011,12,09,05,34,2.60
2011,12,09,05,35,2.60
2011,12,09,05,36,2.60
2011,12,09,05,37,2.60
2011,12,09,05,38,2.60
2011,12,09,05,39,2.60
2011,12,09,05,40,2.60
2011,12,09,05,41,2.60
2011,12,09,05,42,2.60
2011,12,09,05,43,2.60
2011,12,09,05,44,2.60
2011,12,09,05,45,2.60
2011,12,09,05,46,2.60
2011,12,09,05,47,2.60
2011,12,09,05,48,2.60
2011,12,09,05,49,2.60
2011,12,09,05,50,2.60
2011,12,09,05,51,2.50
2011,12,09,05,52,2.50
2011,12,09,05,53,2.50
2011,12,09,05,54,2.50
2011,12,09,05,55,2.50
2011,12,09,05,56,2.50
2011,12,09,05,57,2.50
2011,12,09,05,58,2.50
2011,12,09,05,59,2.50
2011,12,09,06,00,2.50
2011,12,09,06,01,2.50
2011,12,09,06,02,2.40
2011,12,09,06,03,2.40
2011,12,09,06,04,2.40
2011,12,09,06,05,2.40
2011,12,09,06,06,2.40
2011,12,09,06,07,2.40
2011,12,09,06,08,2.50
2011,12,09,06,09,2.50
2011,12,09,06,10,2.50
2011,12,09,06,11,2.50
2011,12,09,06,12,2.50
2011,12,09,06,13,2.50
2011,12,09,06,14,2.50
2011,12,09,06,15,2.50
2011,12,09,06,16,2.50
2011,12,09,06,17,2.50
2011,12,09,06,18,2.50
2011,12,09,06,19,2.50
2011,12,09,06,20,2.50
2011,12,09,06,21,2.50
2011,12,09,06,22,2.50
2011,12,09,06,23,2.50
2011,12,09,06,24,2.50
2011,12,09,06,25,2.50
2011,12,09,06,26,2.50
2011,12,09,06,27,2.50
2011,12,09,06,28,2.50
2011,12,09,06,29,2.50
2011,12,09,06,30,2.50
2011,12,09,06,31,2.50
2011,12,09,06,32,2.50
2011,12,09,06,33,2.50
2011,12,09,06,34,2.50
2011,12,09,06,35,2.50
2011,12,09,06,36,2.50
2011,12,09,06,37,2.50
2011,12,09,06,38,2.50
2011,12,09,06,39,2.50
2011,12,09,06,40,2.50
2011,12,09,06,41,2.50
2011,12,09,06,42,2.50
2011,12,09,06,43,2.50
2011,12,09,06,44,2.50
2011,12,09,06,45,2.50
2011,12,09,06,46,2.50
2011,12,09,06,47,2.50
2011,12,09,06,48,2.50
2011,12,09,06,49,2.50
2011,12,09,06,50,2.50
2011,12,09,06,51,2.50
2011,12,09,06,52,2.50
2011,12,09,06,53,2.50
2011,12,09,06,54,2.50
2011,12,09,06,55,2.50
2011,12,09,06,56,2.50
2011,12,09,06,57,2.50
2011,12,09,06,58,2.50
2011,12,09,06,59,2.50
2011,12,09,07,00,2.50
2011,12,09,07,01,2.50
2011,12,09,07,02,2.50
2011,12,09,07,03,2.50
2011,12,09,07,04,2.50
2011,12,09,07,05,2.50
2011,12,09,07,06,2.50
2011,12,09,07,07,2.50
2011,12,09,07,08,2.50
2011,12,09,07,09,2.50
2011,12,09,07,10,2.50
2011,12,09,07,11,2.50
2011,12,09,07,12,2.50
2011,12,09,07,13,2.50
2011,12,09,07,14,2.50
2011,12,09,07,15,2.50
2011,12,09,07,16,2.50
2011,12,09,07,17,2.50
2011,12,09,07,18,2.50
2011,12,09,07,19,2.50
2011,12,09,07,20,2.50
2011,12,09,07,21,2.50
2011,12,09,07,22,2.50
2011,12,09,07,23,2.50
2011,12,09,07,24,2.50
2011,12,09,07,25,2.50
2011,12,09,07,26,2.50
2011,12,09,07,27,2.50
2011,12,09,07,28,2.40
2011,12,09,07,29,2.50
2011,12,09,07,30,2.50
2011,12,09,07,31,2.40
2011,12,09,07,32,2.40
2011,12,09,07,33,2.40
2011,12,09,07,34,2.40
2011,12,09,07,35,2.40
2011,12,09,07,36,2.40
2011,12,09,07,37,2.50
2011,12,09,07,38,2.40
2011,12,09,07,39,2.40
2011,12,09,07,40,2.40
2011,12,09,07,41,2.40
2011,12,09,07,42,2.40
2011,12,09,07,43,2.40
2011,12,09,07,44,2.40
2011,12,09,07,45,2.40
2011,12,09,07,46,2.40
2011,12,09,07,47,2.40
2011,12,09,07,48,2.40
2011,12,09,07,49,2.40
2011,12,09,07,50,2.40
2011,12,09,07,51,2.40
2011,12,09,07,52,2.40
2011,12,09,07,53,2.40
2011,12,09,07,54,2.50
2011,12,09,07,55,2.50
2011,12,09,07,56,2.50
2011,12,09,07,57,2.50
2011,12,09,07,58,2.50
2011,12,09,07,59,2.50
2011,12,09,08,00,2.50
2011,12,09,08,01,2.50
2011,12,09,08,02,2.50
2011,12,09,08,03,2.50
2011,12,09,08,04,2.40
2011,12,09,08,05,2.40
2011,12,09,08,06,2.40
2011,12,09,08,07,2.40
2011,12,09,08,08,2.40
2011,12,09,08,09,2.40
2011,12,09,08,10,2.40
2011,12,09,08,11,2.40
2011,12,09,08,12,2.40
2011,12,09,08,13,2.40
2011,12,09,08,14,2.40
2011,12,09,08,15,2.40
2011,12,09,08,16,2.40
2011,12,09,08,17,2.40
2011,12,09,08,18,2.40
2011,12,09,08,19,2.40
2011,12,09,08,20,2.30
2011,12,09,08,21,2.30
2011,12,09,08,22,2.30
2011,12,09,08,23,2.30
2011,12,09,08,24,2.30
2011,12,09,08,25,2.30
2011,12,09,08,26,2.40
2011,12,09,08,27,2.40
2011,12,09,08,28,2.40
2011,12,09,08,29,2.40
2011,12,09,08,30,2.40
2011,12,09,08,31,2.40
2011,12,09,08,32,2.40
2011,12,09,08,33,2.40
2011,12,09,08,34,2.40
2011,12,09,08,35,2.40
2011,12,09,08,36,2.40
2011,12,09,08,37,2.40
2011,12,09,08,38,2.40
2011,12,09,08,39,2.40
2011,12,09,08,40,2.40
2011,12,09,08,41,2.40
2011,12,09,08,42,2.40
2011,12,09,08,43,2.40
2011,12,09,08,44,2.40
2011,12,09,08,45,2.40
2011,12,09,08,46,2.40
2011,12,09,08,47,2.40
2011,12,09,08,48,2.40
2011,12,09,08,49,2.40
2011,12,09,08,50,2.40
2011,12,09,08,51,2.30
2011,12,09,08,52,2.30
2011,12,09,08,53,2.30
2011,12,09,08,54,2.30
2011,12,09,08,55,2.30
2011,12,09,08,56,2.30
2011,12,09,08,57,2.30
2011,12,09,08,58,2.30
2011,12,09,08,59,2.30
2011,12,09,09,00,2.30
2011,12,09,09,01,2.30
2011,12,09,09,02,2.30
2011,12,09,09,03,2.30
2011,12,09,09,04,2.30
2011,12,09,09,05,2.20
2011,12,09,09,06,2.20
2011,12,09,09,07,2.20
2011,12,09,09,08,2.20
2011,12,09,09,09,2.20
2011,12,09,09,10,2.20
2011,12,09,09,11,2.20
2011,12,09,09,12,2.20
2011,12,09,09,13,2.20
2011,12,09,09,14,2.20
2011,12,09,09,15,2.20
2011,12,09,09,16,2.20
2011,12,09,09,17,2.20
2011,12,09,09,18,2.20
2011,12,09,09,19,2.20
2011,12,09,09,20,2.20
2011,12,09,09,21,2.20
2011,12,09,09,22,2.10
2011,12,09,09,23,2.10
2011,12,09,09,24,2.10
2011,12,09,09,25,2.10
2011,12,09,09,26,2.10
2011,12,09,09,27,2.10
2011,12,09,09,28,2.10
2011,12,09,09,29,2.10
2011,12,09,09,30,2.10
2011,12,09,09,31,2.10
2011,12,09,09,32,2.10
2011,12,09,09,33,2.10
2011,12,09,09,34,2.10
2011,12,09,09,35,2.00
2011,12,09,09,36,2.00
2011,12,09,09,37,2.00
2011,12,09,09,38,2.00
2011,12,09,09,39,2.00
2011,12,09,09,40,2.00
2011,12,09,09,41,2.00
2011,12,09,09,42,2.00
2011,12,09,09,43,2.00
2011,12,09,09,44,2.00
2011,12,09,09,45,2.00
2011,12,09,09,46,2.10
2011,12,09,09,47,2.10
2011,12,09,09,48,2.10
2011,12,09,09,49,2.20
2011,12,09,09,50,2.20
2011,12,09,09,51,2.20
2011,12,09,09,52,2.30
2011,12,09,09,53,2.40
2011,12,09,09,54,2.40
2011,12,09,09,55,2.50
2011,12,09,09,56,2.60
2011,12,09,09,57,2.60
2011,12,09,09,58,2.70
2011,12,09,09,59,2.70
2011,12,09,10,00,2.80
2011,12,09,10,01,2.80
2011,12,09,10,02,2.90
2011,12,09,10,03,2.90
2011,12,09,10,04,2.90
2011,12,09,10,05,2.90
2011,12,09,10,06,2.90
2011,12,09,10,07,2.90
2011,12,09,10,08,3.00
2011,12,09,10,09,3.00
2011,12,09,10,10,3.00
2011,12,09,10,11,3.00
2011,12,09,10,12,3.00
2011,12,09,10,13,3.00
2011,12,09,10,14,3.00
2011,12,09,10,15,3.10
2011,12,09,10,16,3.10
2011,12,09,10,17,3.10
2011,12,09,10,18,3.10
2011,12,09,10,19,3.10
2011,12,09,10,20,3.10
2011,12,09,10,21,3.10
2011,12,09,10,22,3.10
2011,12,09,10,23,3.10
2011,12,09,10,24,3.20
2011,12,09,10,25,3.20
2011,12,09,10,26,3.20
2011,12,09,10,27,3.20
2011,12,09,10,28,3.20
2011,12,09,10,29,3.20
2011,12,09,10,30,3.20
2011,12,09,10,31,3.20
2011,12,09,10,32,3.20
2011,12,09,10,33,3.20
2011,12,09,10,34,3.20
2011,12,09,10,35,3.30
2011,12,09,10,36,3.30
2011,12,09,10,37,3.30
2011,12,09,10,38,3.30
2011,12,09,10,39,3.30
2011,12,09,10,40,3.30
2011,12,09,10,41,3.30
2011,12,09,10,42,3.30
2011,12,09,10,43,3.30
2011,12,09,10,44,3.30
2011,12,09,10,45,3.30
2011,12,09,10,46,3.30
2011,12,09,10,47,3.30
2011,12,09,10,48,3.30
2011,12,09,10,49,3.30
2011,12,09,10,50,3.30
2011,12,09,10,51,3.30
2011,12,09,10,52,3.30
2011,12,09,10,53,3.30
2011,12,09,10,54,3.30
2011,12,09,10,55,3.30
2011,12,09,10,56,3.40
2011,12,09,10,57,3.40
2011,12,09,10,58,3.40
2011,12,09,10,59,3.40
2011,12,09,11,00,3.40
2011,12,09,11,01,3.40
2011,12,09,11,02,3.40
2011,12,09,11,03,3.50
2011,12,09,11,04,3.50
2011,12,09,11,05,3.60
2011,12,09,11,06,3.60
2011,12,09,11,07,3.60
2011,12,09,11,08,3.60
2011,12,09,11,09,3.70
2011,12,09,11,10,3.70
2011,12,09,11,11,3.70
2011,12,09,11,12,3.70
2011,12,09,11,13,3.70
2011,12,09,11,14,3.70
2011,12,09,11,15,3.70
2011,12,09,11,16,3.70
2011,12,09,11,17,3.70
2011,12,09,11,18,3.70
2011,12,09,11,19,3.80
2011,12,09,11,20,3.80
2011,12,09,11,21,3.80
2011,12,09,11,22,3.90
2011,12,09,11,23,3.90
2011,12,09,11,24,3.90
2011,12,09,11,25,3.90
2011,12,09,11,26,3.90
2011,12,09,11,27,4.00
2011,12,09,11,28,4.00
2011,12,09,11,29,4.00
2011,12,09,11,30,4.00
2011,12,09,11,31,4.10
2011,12,09,11,32,4.10
2011,12,09,11,33,4.10
2011,12,09,11,34,4.00
2011,12,09,11,35,4.00
2011,12,09,11,36,4.00
2011,12,09,11,37,4.00
2011,12,09,11,38,4.10
2011,12,09,11,39,4.10
2011,12,09,11,40,4.10
2011,12,09,11,41,4.10
2011,12,09,11,42,4.10
2011,12,09,11,43,4.10
2011,12,09,11,44,4.20
2011,12,09,11,45,4.20
2011,12,09,11,46,4.20
2011,12,09,11,47,4.20
2011,12,09,11,49,4.20
2011,12,09,12,24,4.30
2011,12,09,16,10,4.70
2011,12,09,16,11,4.60
2011,12,09,16,12,4.60
2011,12,09,16,13,4.60
2011,12,09,16,14,4.60
2011,12,09,16,15,4.60
2011,12,09,16,16,4.60
2011,12,09,16,17,4.50
2011,12,09,16,18,4.50
2011,12,09,16,19,4.40
2011,12,09,16,20,4.40
2011,12,09,16,21,4.40
2011,12,09,16,22,4.40
2011,12,09,16,23,4.40
2011,12,09,16,24,4.40
2011,12,09,16,25,4.40
2011,12,09,16,26,4.40
2011,12,09,16,27,4.40
2011,12,09,16,28,4.40
2011,12,09,16,29,4.40
2011,12,09,16,30,4.30
2011,12,09,16,31,4.30
2011,12,09,16,32,4.30
2011,12,09,16,33,4.20
2011,12,09,16,34,4.20
2011,12,09,16,35,4.20
2011,12,09,16,36,4.10
2011,12,09,16,37,4.10
2011,12,09,16,38,4.10
2011,12,09,16,39,4.00
2011,12,09,16,40,4.00
2011,12,09,16,41,4.00
2011,12,09,16,42,4.00
2011,12,09,16,43,3.90
2011,12,09,16,44,3.90
2011,12,09,16,45,3.80
2011,12,09,16,46,3.80
2011,12,09,16,47,3.70
2011,12,09,16,48,3.70
2011,12,09,16,49,3.70
2011,12,09,16,50,3.70
2011,12,09,16,51,3.60
2011,12,09,16,52,3.60
2011,12,09,16,53,3.60
2011,12,09,16,54,3.60
2011,12,09,16,55,3.50
2011,12,09,16,56,3.50
2011,12,09,16,57,3.50
2011,12,09,16,58,3.40
2011,12,09,16,59,3.40
2011,12,09,17,00,3.40
2011,12,09,17,01,3.40
2011,12,09,17,02,3.30
2011,12,09,17,03,3.30
2011,12,09,17,04,3.30
2011,12,09,17,05,3.30
2011,12,09,17,06,3.30
2011,12,09,17,07,3.20
2011,12,09,17,08,3.20
2011,12,09,17,09,3.20
2011,12,09,17,10,3.20
2011,12,09,17,11,3.10
2011,12,09,17,12,3.10
2011,12,09,17,13,3.10
2011,12,09,17,14,3.00
2011,12,09,17,15,3.00
2011,12,09,17,16,2.90
2011,12,09,17,17,2.90
2011,12,09,17,18,2.90
2011,12,09,17,19,2.90
2011,12,09,17,20,2.80
2011,12,09,17,21,2.80
2011,12,09,17,22,2.80
2011,12,09,17,23,2.70
2011,12,09,17,24,2.70
2011,12,09,17,25,2.70
2011,12,09,17,26,2.70
2011,12,09,17,27,2.60
2011,12,09,17,28,2.60
2011,12,09,17,29,2.60
2011,12,09,17,30,2.50
2011,12,09,17,31,2.50
2011,12,09,17,32,2.40
2011,12,09,17,33,2.40
2011,12,09,17,34,2.40
2011,12,09,17,35,2.30
2011,12,09,17,36,2.30
2011,12,09,17,37,2.30
2011,12,09,17,38,2.30
2011,12,09,17,39,2.20
2011,12,09,17,40,2.20
2011,12,09,17,41,2.20
2011,12,09,17,42,2.20
2011,12,09,17,43,2.10
2011,12,09,17,44,2.10
2011,12,09,17,45,2.10
2011,12,09,17,46,2.10
2011,12,09,17,47,2.10
2011,12,09,17,48,2.00
2011,12,09,17,49,2.00
2011,12,09,17,50,2.00
2011,12,09,17,51,2.00
2011,12,09,17,52,2.00
2011,12,09,17,53,1.90
2011,12,09,17,54,1.90
2011,12,09,17,55,1.90
2011,12,09,17,56,1.80
2011,12,09,17,57,1.80
2011,12,09,17,58,1.80
2011,12,09,17,59,1.80
2011,12,09,18,00,1.70
2011,12,09,18,01,1.70
2011,12,09,18,02,1.70
2011,12,09,18,03,1.70
2011,12,09,18,04,1.70
2011,12,09,18,05,1.70
2011,12,09,18,06,1.60
2011,12,09,18,07,1.60
2011,12,09,18,08,1.60
2011,12,09,18,09,1.50
2011,12,09,18,10,1.50
2011,12,09,18,11,1.50
2011,12,09,18,12,1.50
2011,12,09,18,13,1.40
2011,12,09,18,14,1.40
2011,12,09,18,15,1.40
2011,12,09,18,16,1.40
2011,12,09,18,17,1.40
2011,12,09,18,18,1.40
2011,12,09,18,19,1.40
2011,12,09,18,20,1.30
2011,12,09,18,21,1.30
2011,12,09,18,22,1.30
2011,12,09,18,23,1.30
2011,12,09,18,24,1.30
2011,12,09,18,25,1.30
2011,12,09,18,26,1.30
2011,12,09,18,27,1.30
2011,12,09,18,28,1.30
2011,12,09,18,29,1.30
2011,12,09,18,30,1.30
2011,12,09,18,31,1.30
2011,12,09,18,32,1.30
2011,12,09,18,33,1.30
2011,12,09,18,34,1.30
2011,12,09,18,35,1.30
2011,12,09,18,36,1.30
2011,12,09,18,37,1.30
2011,12,09,18,38,1.30
2011,12,09,18,39,1.30
2011,12,09,18,40,1.40
2011,12,09,18,41,1.40
2011,12,09,18,42,1.40
2011,12,09,18,43,1.40
2011,12,09,18,44,1.50
2011,12,09,18,45,1.50
2011,12,09,18,46,1.50
2011,12,09,18,47,1.50
2011,12,09,18,48,1.60
2011,12,09,18,49,1.50
2011,12,09,18,50,1.50
2011,12,09,18,51,1.50
2011,12,09,18,52,1.60
2011,12,09,18,53,1.60
2011,12,09,18,54,1.60
2011,12,09,18,55,1.60
2011,12,09,18,56,1.60
2011,12,09,18,57,1.60
2011,12,09,18,58,1.70
2011,12,09,18,59,1.70
2011,12,09,19,00,1.70
2011,12,09,19,01,1.70
2011,12,09,19,02,1.70
2011,12,09,19,03,1.70
2011,12,09,19,04,1.70
2011,12,09,19,05,1.70
2011,12,09,19,06,1.70
2011,12,09,19,07,1.70
2011,12,09,19,08,1.70
2011,12,09,19,09,1.70
2011,12,09,19,10,1.70
2011,12,09,19,11,1.70
2011,12,09,19,12,1.70
2011,12,09,19,13,1.70
2011,12,09,19,14,1.80
2011,12,09,19,15,1.80
2011,12,09,19,16,1.80
2011,12,09,19,17,1.80
2011,12,09,19,18,1.80
2011,12,09,19,19,1.70
2011,12,09,19,20,1.70
2011,12,09,19,21,1.70
2011,12,09,19,22,1.70
2011,12,09,19,23,1.60
2011,12,09,19,24,1.60
2011,12,09,19,25,1.60
2011,12,09,19,26,1.60
2011,12,09,19,27,1.60
2011,12,09,19,28,1.70
2011,12,09,19,29,1.70
2011,12,09,19,30,1.80
2011,12,09,19,31,1.80
2011,12,09,19,32,1.80
2011,12,09,19,33,1.80
2011,12,09,19,34,1.80
2011,12,09,19,35,1.80
2011,12,09,19,36,1.70
2011,12,09,19,37,1.70
2011,12,09,19,38,1.70
2011,12,09,19,39,1.70
2011,12,09,19,40,1.70
2011,12,09,19,41,1.60
2011,12,09,19,42,1.60
2011,12,09,19,43,1.60
2011,12,09,19,44,1.60
2011,12,09,19,45,1.60
2011,12,09,19,46,1.60
2011,12,09,19,47,1.60
2011,12,09,19,48,1.60
2011,12,09,19,49,1.70
2011,12,09,19,50,1.70
2011,12,09,19,51,1.70
2011,12,09,19,52,1.70
2011,12,09,19,53,1.70
2011,12,09,19,54,1.70
2011,12,09,19,55,1.60
2011,12,09,19,56,1.60
2011,12,09,19,57,1.60
2011,12,09,19,58,1.60
2011,12,09,19,59,1.60
2011,12,09,20,00,1.60
2011,12,09,20,01,1.60
2011,12,09,20,02,1.50
2011,12,09,20,03,1.50
2011,12,09,20,04,1.50
2011,12,09,20,05,1.50
2011,12,09,20,06,1.50
2011,12,09,20,07,1.60
2011,12,09,20,08,1.50
2011,12,09,20,09,1.60
2011,12,09,20,10,1.60
2011,12,09,20,11,1.50
2011,12,09,20,12,1.50
2011,12,09,20,13,1.40
2011,12,09,20,14,1.40
2011,12,09,20,15,1.40
2011,12,09,20,16,1.30
2011,12,09,20,17,1.30
2011,12,09,20,18,1.30
2011,12,09,20,19,1.30
2011,12,09,20,20,1.30
2011,12,09,20,21,1.30
2011,12,09,20,22,1.30
2011,12,09,20,23,1.30
2011,12,09,20,24,1.20
2011,12,09,20,25,1.20
2011,12,09,20,26,1.20
2011,12,09,20,27,1.10
2011,12,09,20,28,1.10
2011,12,09,20,29,1.10
2011,12,09,20,30,1.00
2011,12,09,20,31,1.00
2011,12,09,20,32,0.90
2011,12,09,20,33,0.90
2011,12,09,20,34,0.80
2011,12,09,20,35,0.80
2011,12,09,20,36,0.80
2011,12,09,20,37,0.80
2011,12,09,20,38,0.80
2011,12,09,20,39,0.80
2011,12,09,20,40,0.80
2011,12,09,20,41,0.80
2011,12,09,20,42,0.70
2011,12,09,20,43,0.70
2011,12,09,20,44,0.70
2011,12,09,20,45,0.70
2011,12,09,20,46,0.70
2011,12,09,20,47,0.60
2011,12,09,20,48,0.70
2011,12,09,20,49,0.60
2011,12,09,20,50,0.60
2011,12,09,20,51,0.60
2011,12,09,20,52,0.60
2011,12,09,20,53,0.60
2011,12,09,20,54,0.60
2011,12,09,20,55,0.60
2011,12,09,20,56,0.60
2011,12,09,20,57,0.50
2011,12,09,20,58,0.40
2011,12,09,20,59,0.40
2011,12,09,21,00,0.40
2011,12,09,21,01,0.40
2011,12,09,21,02,0.30
2011,12,09,21,03,0.30
2011,12,09,21,04,0.30
2011,12,09,21,05,0.30
2011,12,09,21,06,0.30
2011,12,09,21,07,0.20
2011,12,09,21,08,0.20
2011,12,09,21,09,0.20
2011,12,09,21,10,0.20
2011,12,09,21,11,0.20
2011,12,09,21,12,0.10
2011,12,09,21,13,0.10
2011,12,09,21,14,0.10
2011,12,09,21,15,0.10
2011,12,09,21,16,0.00
2011,12,09,21,17,0.00
2011,12,09,21,18,-0.10
2011,12,09,21,19,-0.10
2011,12,09,21,20,-0.10
2011,12,09,21,21,-0.10
2011,12,09,21,22,-0.10
2011,12,09,21,23,-0.20
2011,12,09,21,24,-0.20
2011,12,09,21,25,-0.20
2011,12,09,21,26,-0.20
2011,12,09,21,27,-0.20
2011,12,09,21,28,-0.20
2011,12,09,21,29,-0.20
2011,12,09,21,30,-0.20
2011,12,09,21,31,-0.20
2011,12,09,21,32,-0.20
2011,12,09,21,33,-0.20
2011,12,09,21,34,-0.20
2011,12,09,21,35,-0.20
2011,12,09,21,36,-0.20
2011,12,09,21,37,-0.20
2011,12,09,21,38,-0.20
2011,12,09,21,39,-0.20
2011,12,09,21,40,-0.20
2011,12,09,21,41,-0.20
2011,12,09,21,42,-0.20
2011,12,09,21,43,-0.20
2011,12,09,21,44,-0.20
2011,12,09,21,45,-0.20
2011,12,09,21,46,-0.20
2011,12,09,21,47,-0.20
2011,12,09,21,48,-0.20
2011,12,09,21,49,-0.20
2011,12,09,21,50,-0.20
2011,12,09,21,51,-0.20
2011,12,09,21,52,-0.20
2011,12,09,21,53,-0.20
2011,12,09,21,54,-0.30
2011,12,09,21,55,-0.30
2011,12,09,21,56,-0.30
2011,12,09,21,57,-0.30
2011,12,09,21,58,-0.30
2011,12,09,21,59,-0.40
2011,12,09,22,00,-0.40
2011,12,09,22,01,-0.40
2011,12,09,22,02,-0.40
2011,12,09,22,03,-0.40
2011,12,09,22,04,-0.50
2011,12,09,22,05,-0.50
2011,12,09,22,06,-0.50
2011,12,09,22,07,-0.60
2011,12,09,22,08,-0.60
2011,12,09,22,09,-0.60
2011,12,09,22,10,-0.60
2011,12,09,22,11,-0.60
2011,12,09,22,12,-0.70
2011,12,09,22,13,-0.70
2011,12,09,22,14,-0.70
2011,12,09,22,15,-0.70
2011,12,09,22,16,-0.70
2011,12,09,22,17,-0.70
2011,12,09,22,18,-0.70
2011,12,09,22,19,-0.70
2011,12,09,22,20,-0.80
2011,12,09,22,21,-0.80
2011,12,09,22,22,-0.80
2011,12,09,22,23,-0.80